#datetime,building,power
2022-12-23T00:00:00,ths,4.50
2022-12-23T00:01:00,ths,4.49
2022-12-23T00:02:00,ths,4.49
2022-12-23T00:03:00,ths,4.48
2022-12-23T00:04:00,ths,4.65
2022-12-23T00:05:00,ths,4.59
2022-12-23T00:06:00,ths,3.58
2022-12-23T00:07:00,ths,3.58
2022-12-23T00:08:00,ths,4.68
2022-12-23T00:09:00,ths,4.69
2022-12-23T00:10:00,ths,4.64
2022-12-23T00:11:00,ths,4.47
2022-12-23T00:12:00,ths,4.43
2022-12-23T00:13:00,ths,4.40
2022-12-23T00:14:00,ths,4.40
2022-12-23T00:15:00,ths,4.26
2022-12-23T00:16:00,ths,3.30
2022-12-23T00:17:00,ths,3.36
2022-12-23T00:18:00,ths,3.29
2022-12-23T00:19:00,ths,3.29
2022-12-23T00:20:00,ths,4.28
2022-12-23T00:21:00,ths,4.26
2022-12-23T00:22:00,ths,4.28
2022-12-23T00:23:00,ths,4.28
2022-12-23T00:24:00,ths,4.41
2022-12-23T00:25:00,ths,4.39
2022-12-23T00:26:00,ths,4.19
2022-12-23T00:27:00,ths,3.34
2022-12-23T00:28:00,ths,3.33
2022-12-23T00:29:00,ths,3.58
2022-12-23T00:30:00,ths,3.60
2022-12-23T00:31:00,ths,3.67
2022-12-23T00:32:00,ths,3.70
2022-12-23T00:33:00,ths,3.70
2022-12-23T00:34:00,ths,3.64
2022-12-23T00:35:00,ths,3.64
2022-12-23T00:36:00,ths,3.60
2022-12-23T00:37:00,ths,3.97
2022-12-23T00:38:00,ths,3.94
2022-12-23T00:39:00,ths,3.95
2022-12-23T00:40:00,ths,3.91
2022-12-23T00:41:00,ths,5.59
2022-12-23T00:42:00,ths,3.90
2022-12-23T00:43:00,ths,4.90
2022-12-23T00:44:00,ths,4.93
2022-12-23T00:45:00,ths,4.76
2022-12-23T00:46:00,ths,4.74
2022-12-23T00:47:00,ths,4.91
2022-12-23T00:48:00,ths,4.84
2022-12-23T00:49:00,ths,4.92
2022-12-23T00:50:00,ths,4.86
2022-12-23T00:51:00,ths,3.97
2022-12-23T00:52:00,ths,4.00
2022-12-23T00:53:00,ths,3.98
2022-12-23T00:54:00,ths,3.78
2022-12-23T00:55:00,ths,4.90
2022-12-23T00:56:00,ths,4.91
2022-12-23T00:57:00,ths,4.90
2022-12-23T00:58:00,ths,4.85
2022-12-23T00:59:00,ths,5.74
2022-12-23T01:00:00,ths,5.80
2022-12-23T01:01:00,ths,4.71
2022-12-23T01:02:00,ths,4.62
2022-12-23T01:03:00,ths,4.70
2022-12-23T01:04:00,ths,4.70
2022-12-23T01:05:00,ths,4.55
2022-12-23T01:06:00,ths,4.62
2022-12-23T01:07:00,ths,4.59
2022-12-23T01:08:00,ths,4.51
2022-12-23T01:09:00,ths,4.51
2022-12-23T01:10:00,ths,4.72
2022-12-23T01:11:00,ths,4.44
2022-12-23T01:12:00,ths,3.63
2022-12-23T01:13:00,ths,3.85
2022-12-23T01:14:00,ths,3.97
2022-12-23T01:15:00,ths,3.86
2022-12-23T01:16:00,ths,3.84
2022-12-23T01:17:00,ths,3.85
2022-12-23T01:18:00,ths,4.78
2022-12-23T01:19:00,ths,5.83
2022-12-23T01:20:00,ths,5.70
2022-12-23T01:21:00,ths,5.71
2022-12-23T01:22:00,ths,5.82
2022-12-23T01:23:00,ths,5.80
2022-12-23T01:24:00,ths,5.79
2022-12-23T01:25:00,ths,4.87
2022-12-23T01:26:00,ths,3.64
2022-12-23T01:27:00,ths,3.63
2022-12-23T01:28:00,ths,4.58
2022-12-23T01:29:00,ths,4.55
2022-12-23T01:30:00,ths,4.48
2022-12-23T01:31:00,ths,4.52
2022-12-23T01:32:00,ths,4.40
2022-12-23T01:33:00,ths,4.44
2022-12-23T01:34:00,ths,4.46
2022-12-23T01:35:00,ths,4.47
2022-12-23T01:36:00,ths,5.58
2022-12-23T01:37:00,ths,5.57
2022-12-23T01:38:00,ths,5.57
2022-12-23T01:39:00,ths,5.66
2022-12-23T01:40:00,ths,5.64
2022-12-23T01:41:00,ths,5.34
2022-12-23T01:42:00,ths,4.42
2022-12-23T01:43:00,ths,4.48
2022-12-23T01:44:00,ths,4.41
2022-12-23T01:45:00,ths,4.36
2022-12-23T01:46:00,ths,4.37
2022-12-23T01:47:00,ths,4.26
2022-12-23T01:48:00,ths,4.37
2022-12-23T01:49:00,ths,5.29
2022-12-23T01:50:00,ths,5.41
2022-12-23T01:51:00,ths,5.44
2022-12-23T01:52:00,ths,4.55
2022-12-23T01:53:00,ths,5.45
2022-12-23T01:54:00,ths,5.60
2022-12-23T01:55:00,ths,5.59
2022-12-23T01:56:00,ths,5.59
2022-12-23T01:57:00,ths,5.53
2022-12-23T01:58:00,ths,5.43
2022-12-23T01:59:00,ths,5.40
2022-12-23T02:00:00,ths,4.52
2022-12-23T02:01:00,ths,3.40
2022-12-23T02:02:00,ths,4.37
2022-12-23T02:03:00,ths,3.81
2022-12-23T02:04:00,ths,3.96
2022-12-23T02:05:00,ths,3.92
2022-12-23T02:06:00,ths,3.91
2022-12-23T02:07:00,ths,4.10
2022-12-23T02:08:00,ths,4.01
2022-12-23T02:09:00,ths,3.83
2022-12-23T02:10:00,ths,3.77
2022-12-23T02:11:00,ths,3.78
2022-12-23T02:12:00,ths,5.46
2022-12-23T02:13:00,ths,5.86
2022-12-23T02:14:00,ths,4.82
2022-12-23T02:15:00,ths,4.92
2022-12-23T02:16:00,ths,4.87
2022-12-23T02:17:00,ths,3.75
2022-12-23T02:18:00,ths,3.57
2022-12-23T02:19:00,ths,3.65
2022-12-23T02:20:00,ths,3.62
2022-12-23T02:21:00,ths,4.59
2022-12-23T02:22:00,ths,4.78
2022-12-23T02:23:00,ths,4.59
2022-12-23T02:24:00,ths,4.59
2022-12-23T02:25:00,ths,4.59
2022-12-23T02:26:00,ths,4.58
2022-12-23T02:27:00,ths,4.44
2022-12-23T02:28:00,ths,4.31
2022-12-23T02:29:00,ths,3.48
2022-12-23T02:30:00,ths,3.49
2022-12-23T02:31:00,ths,5.54
2022-12-23T02:32:00,ths,5.51
2022-12-23T02:33:00,ths,5.62
2022-12-23T02:34:00,ths,5.59
2022-12-23T02:35:00,ths,5.56
2022-12-23T02:36:00,ths,5.52
2022-12-23T02:37:00,ths,5.57
2022-12-23T02:38:00,ths,4.30
2022-12-23T02:39:00,ths,4.29
2022-12-23T02:40:00,ths,4.29
2022-12-23T02:41:00,ths,4.46
2022-12-23T02:42:00,ths,4.46
2022-12-23T02:43:00,ths,5.33
2022-12-23T02:44:00,ths,5.33
2022-12-23T02:45:00,ths,5.40
2022-12-23T02:46:00,ths,5.56
2022-12-23T02:47:00,ths,5.38
2022-12-23T02:48:00,ths,5.38
2022-12-23T02:49:00,ths,5.30
2022-12-23T02:50:00,ths,6.43
2022-12-23T02:51:00,ths,6.25
2022-12-23T02:52:00,ths,6.31
2022-12-23T02:53:00,ths,6.33
2022-12-23T02:54:00,ths,6.38
2022-12-23T02:55:00,ths,5.80
2022-12-23T02:56:00,ths,4.36
2022-12-23T02:57:00,ths,4.34
2022-12-23T02:58:00,ths,4.23
2022-12-23T02:59:00,ths,4.15
2022-12-23T03:00:00,ths,4.14
2022-12-23T03:01:00,ths,4.12
2022-12-23T03:02:00,ths,4.11
2022-12-23T03:03:00,ths,4.17
2022-12-23T03:04:00,ths,4.15
2022-12-23T03:05:00,ths,4.39
2022-12-23T03:06:00,ths,4.38
2022-12-23T03:07:00,ths,4.40
2022-12-23T03:08:00,ths,4.34
2022-12-23T03:09:00,ths,4.32
2022-12-23T03:10:00,ths,4.31
2022-12-23T03:11:00,ths,4.36
2022-12-23T03:12:00,ths,4.36
2022-12-23T03:13:00,ths,3.25
2022-12-23T03:14:00,ths,3.19
2022-12-23T03:15:00,ths,3.38
2022-12-23T03:16:00,ths,3.36
2022-12-23T03:17:00,ths,3.35
2022-12-23T03:18:00,ths,3.34
2022-12-23T03:19:00,ths,3.44
2022-12-23T03:20:00,ths,3.43
2022-12-23T03:21:00,ths,3.19
2022-12-23T03:22:00,ths,3.24
2022-12-23T03:23:00,ths,3.23
2022-12-23T03:24:00,ths,3.12
2022-12-23T03:25:00,ths,3.08
2022-12-23T03:26:00,ths,3.98
2022-12-23T03:27:00,ths,3.98
2022-12-23T03:28:00,ths,4.00
2022-12-23T03:29:00,ths,4.05
2022-12-23T03:30:00,ths,4.13
2022-12-23T03:31:00,ths,4.11
2022-12-23T03:32:00,ths,5.27
2022-12-23T03:33:00,ths,5.21
2022-12-23T03:34:00,ths,5.35
2022-12-23T03:35:00,ths,5.33
2022-12-23T03:36:00,ths,5.39
2022-12-23T03:37:00,ths,4.26
2022-12-23T03:38:00,ths,3.40
2022-12-23T03:39:00,ths,3.34
2022-12-23T03:40:00,ths,3.30
2022-12-23T03:41:00,ths,3.29
2022-12-23T03:42:00,ths,3.27
2022-12-23T03:43:00,ths,4.38
2022-12-23T03:44:00,ths,4.56
2022-12-23T03:45:00,ths,4.58
2022-12-23T03:46:00,ths,4.54
2022-12-23T03:47:00,ths,4.53
2022-12-23T03:48:00,ths,4.75
2022-12-23T03:49:00,ths,4.67
2022-12-23T03:50:00,ths,4.47
2022-12-23T03:51:00,ths,3.56
2022-12-23T03:52:00,ths,3.54
2022-12-23T03:53:00,ths,3.40
2022-12-23T03:54:00,ths,3.45
2022-12-23T03:55:00,ths,3.30
2022-12-23T03:56:00,ths,3.14
2022-12-23T03:57:00,ths,3.14
2022-12-23T03:58:00,ths,3.14
2022-12-23T03:59:00,ths,3.06
2022-12-23T04:00:00,ths,3.08
2022-12-23T04:01:00,ths,3.07
2022-12-23T04:02:00,ths,3.12
2022-12-23T04:03:00,ths,3.14
2022-12-23T04:04:00,ths,3.13
2022-12-23T04:05:00,ths,3.92
2022-12-23T04:06:00,ths,3.92
2022-12-23T04:07:00,ths,3.90
2022-12-23T04:08:00,ths,5.10
2022-12-23T04:09:00,ths,5.09
2022-12-23T04:10:00,ths,6.29
2022-12-23T04:11:00,ths,6.29
2022-12-23T04:12:00,ths,6.37
2022-12-23T04:13:00,ths,6.19
2022-12-23T04:14:00,ths,5.21
2022-12-23T04:15:00,ths,5.20
2022-12-23T04:16:00,ths,4.11
2022-12-23T04:17:00,ths,4.04
2022-12-23T04:18:00,ths,3.19
2022-12-23T04:19:00,ths,3.18
2022-12-23T04:20:00,ths,3.17
2022-12-23T04:21:00,ths,3.14
2022-12-23T04:22:00,ths,4.25
2022-12-23T04:23:00,ths,4.26
2022-12-23T04:24:00,ths,4.44
2022-12-23T04:25:00,ths,4.42
2022-12-23T04:26:00,ths,4.34
2022-12-23T04:27:00,ths,4.38
2022-12-23T04:28:00,ths,4.39
2022-12-23T04:29:00,ths,4.20
2022-12-23T04:30:00,ths,3.42
2022-12-23T04:31:00,ths,3.20
2022-12-23T04:32:00,ths,3.19
2022-12-23T04:33:00,ths,3.27
2022-12-23T04:34:00,ths,3.20
2022-12-23T04:35:00,ths,3.17
2022-12-23T04:36:00,ths,3.14
2022-12-23T04:37:00,ths,3.15
2022-12-23T04:38:00,ths,3.14
2022-12-23T04:39:00,ths,3.06
2022-12-23T04:40:00,ths,3.06
2022-12-23T04:41:00,ths,3.06
2022-12-23T04:42:00,ths,4.16
2022-12-23T04:43:00,ths,4.16
2022-12-23T04:44:00,ths,5.28
2022-12-23T04:45:00,ths,5.28
2022-12-23T04:46:00,ths,5.24
2022-12-23T04:47:00,ths,5.20
2022-12-23T04:48:00,ths,5.96
2022-12-23T04:49:00,ths,4.99
2022-12-23T04:50:00,ths,4.05
2022-12-23T04:51:00,ths,4.02
2022-12-23T04:52:00,ths,4.03
2022-12-23T04:53:00,ths,4.26
2022-12-23T04:54:00,ths,4.24
2022-12-23T04:55:00,ths,4.18
2022-12-23T04:56:00,ths,4.03
2022-12-23T04:57:00,ths,4.01
2022-12-23T04:58:00,ths,4.34
2022-12-23T04:59:00,ths,4.04
2022-12-23T05:00:00,ths,4.04
2022-12-23T05:01:00,ths,4.28
2022-12-23T05:02:00,ths,4.42
2022-12-23T05:03:00,ths,4.32
2022-12-23T05:04:00,ths,4.33
2022-12-23T05:05:00,ths,4.48
2022-12-23T05:06:00,ths,4.51
2022-12-23T05:07:00,ths,4.49
2022-12-23T05:08:00,ths,3.71
2022-12-23T05:09:00,ths,3.40
2022-12-23T05:10:00,ths,3.29
2022-12-23T05:11:00,ths,3.10
2022-12-23T05:12:00,ths,3.10
2022-12-23T05:13:00,ths,3.10
2022-12-23T05:14:00,ths,3.07
2022-12-23T05:15:00,ths,3.08
2022-12-23T05:16:00,ths,3.07
2022-12-23T05:17:00,ths,3.15
2022-12-23T05:18:00,ths,3.12
2022-12-23T05:19:00,ths,3.13
2022-12-23T05:20:00,ths,4.22
2022-12-23T05:21:00,ths,4.15
2022-12-23T05:22:00,ths,4.24
2022-12-23T05:23:00,ths,4.37
2022-12-23T05:24:00,ths,4.52
2022-12-23T05:25:00,ths,4.46
2022-12-23T05:26:00,ths,4.47
2022-12-23T05:27:00,ths,4.38
2022-12-23T05:28:00,ths,4.30
2022-12-23T05:29:00,ths,4.31
2022-12-23T05:30:00,ths,4.26
2022-12-23T05:31:00,ths,5.14
2022-12-23T05:32:00,ths,5.03
2022-12-23T05:33:00,ths,3.94
2022-12-23T05:34:00,ths,3.94
2022-12-23T05:35:00,ths,3.93
2022-12-23T05:36:00,ths,4.03
2022-12-23T05:37:00,ths,4.00
2022-12-23T05:38:00,ths,3.99
2022-12-23T05:39:00,ths,3.97
2022-12-23T05:40:00,ths,3.97
2022-12-23T05:41:00,ths,4.07
2022-12-23T05:42:00,ths,5.23
2022-12-23T05:43:00,ths,4.41
2022-12-23T05:44:00,ths,4.36
2022-12-23T05:45:00,ths,4.35
2022-12-23T05:46:00,ths,4.28
2022-12-23T05:47:00,ths,5.30
2022-12-23T05:48:00,ths,5.31
2022-12-23T05:49:00,ths,5.30
2022-12-23T05:50:00,ths,4.16
2022-12-23T05:51:00,ths,4.16
2022-12-23T05:52:00,ths,4.14
2022-12-23T05:53:00,ths,3.83
2022-12-23T05:54:00,ths,2.92
2022-12-23T05:55:00,ths,2.92
2022-12-23T05:56:00,ths,2.90
2022-12-23T05:57:00,ths,2.90
2022-12-23T05:58:00,ths,2.87
2022-12-23T05:59:00,ths,2.86
2022-12-23T06:00:00,ths,2.87
2022-12-23T06:01:00,ths,2.86
2022-12-23T06:02:00,ths,2.87
2022-12-23T06:03:00,ths,2.98
2022-12-23T06:04:00,ths,3.04
2022-12-23T06:05:00,ths,3.04
2022-12-23T06:06:00,ths,3.02
2022-12-23T06:07:00,ths,4.13
2022-12-23T06:08:00,ths,4.13
2022-12-23T06:09:00,ths,4.13
2022-12-23T06:10:00,ths,4.12
2022-12-23T06:11:00,ths,4.08
2022-12-23T06:12:00,ths,6.17
2022-12-23T06:13:00,ths,5.06
2022-12-23T06:14:00,ths,5.03
2022-12-23T06:15:00,ths,5.04
2022-12-23T06:16:00,ths,5.22
2022-12-23T06:17:00,ths,5.13
2022-12-23T06:18:00,ths,5.12
2022-12-23T06:19:00,ths,4.20
2022-12-23T06:20:00,ths,5.28
2022-12-23T06:21:00,ths,5.08
2022-12-23T06:22:00,ths,4.41
2022-12-23T06:23:00,ths,4.37
2022-12-23T06:24:00,ths,4.34
2022-12-23T06:25:00,ths,4.31
2022-12-23T06:26:00,ths,4.28
2022-12-23T06:27:00,ths,4.27
2022-12-23T06:28:00,ths,3.18
2022-12-23T06:29:00,ths,3.08
2022-12-23T06:30:00,ths,3.15
2022-12-23T06:31:00,ths,3.17
2022-12-23T06:32:00,ths,3.14
2022-12-23T06:33:00,ths,3.26
2022-12-23T06:34:00,ths,3.34
2022-12-23T06:35:00,ths,3.45
2022-12-23T06:36:00,ths,3.37
2022-12-23T06:37:00,ths,3.47
2022-12-23T06:38:00,ths,3.46
2022-12-23T06:39:00,ths,4.50
2022-12-23T06:40:00,ths,4.50
2022-12-23T06:41:00,ths,4.49
2022-12-23T06:42:00,ths,4.40
2022-12-23T06:43:00,ths,4.29
2022-12-23T06:44:00,ths,4.29
2022-12-23T06:45:00,ths,4.28
2022-12-23T06:46:00,ths,4.28
2022-12-23T06:47:00,ths,3.22
2022-12-23T06:48:00,ths,4.28
2022-12-23T06:49:00,ths,4.25
2022-12-23T06:50:00,ths,4.27
2022-12-23T06:51:00,ths,4.45
2022-12-23T06:52:00,ths,4.45
2022-12-23T06:53:00,ths,4.46
2022-12-23T06:54:00,ths,3.39
2022-12-23T06:55:00,ths,3.40
2022-12-23T06:56:00,ths,3.45
2022-12-23T06:57:00,ths,3.43
2022-12-23T06:58:00,ths,3.32
2022-12-23T06:59:00,ths,4.39
2022-12-23T07:00:00,ths,4.43
2022-12-23T07:01:00,ths,4.43
2022-12-23T07:02:00,ths,5.50
2022-12-23T07:03:00,ths,5.50
2022-12-23T07:04:00,ths,5.50
2022-12-23T07:05:00,ths,5.48
2022-12-23T07:06:00,ths,5.29
2022-12-23T07:07:00,ths,4.31
2022-12-23T07:08:00,ths,4.21
2022-12-23T07:09:00,ths,4.23
2022-12-23T07:10:00,ths,3.15
2022-12-23T07:11:00,ths,3.14
2022-12-23T07:12:00,ths,3.15
2022-12-23T07:13:00,ths,3.12
2022-12-23T07:14:00,ths,3.11
2022-12-23T07:15:00,ths,3.16
2022-12-23T07:16:00,ths,3.14
2022-12-23T07:17:00,ths,3.16
2022-12-23T07:18:00,ths,3.15
2022-12-23T07:19:00,ths,3.15
2022-12-23T07:20:00,ths,3.14
2022-12-23T07:21:00,ths,3.11
2022-12-23T22:59:00,ths,5.87
2022-12-23T23:00:00,ths,5.72
2022-12-23T23:01:00,ths,6.96
2022-12-23T23:02:00,ths,7.17
2022-12-23T23:03:00,ths,6.79
2022-12-23T23:04:00,ths,5.86
2022-12-23T23:05:00,ths,5.59
2022-12-23T23:06:00,ths,5.54
2022-12-23T23:07:00,ths,5.52
2022-12-23T23:08:00,ths,5.44
2022-12-23T23:09:00,ths,4.33
2022-12-23T23:10:00,ths,4.33
2022-12-23T23:11:00,ths,4.34
2022-12-23T23:12:00,ths,4.31
2022-12-23T23:13:00,ths,4.30
2022-12-23T23:14:00,ths,4.16
2022-12-23T23:15:00,ths,4.11
2022-12-23T23:16:00,ths,3.26
2022-12-23T23:17:00,ths,3.26
2022-12-23T23:18:00,ths,3.36
2022-12-23T23:19:00,ths,3.54
2022-12-23T23:20:00,ths,3.50
2022-12-23T23:21:00,ths,3.78
2022-12-23T23:22:00,ths,5.49
2022-12-23T23:23:00,ths,4.79
2022-12-23T23:24:00,ths,4.82
2022-12-23T23:25:00,ths,5.92
2022-12-23T23:26:00,ths,6.05
2022-12-23T23:27:00,ths,6.07
2022-12-23T23:28:00,ths,7.28
2022-12-23T23:29:00,ths,7.16
2022-12-23T23:30:00,ths,5.87
2022-12-23T23:31:00,ths,5.91
2022-12-23T23:32:00,ths,4.88
2022-12-23T23:33:00,ths,4.75
2022-12-23T23:34:00,ths,5.65
2022-12-23T23:35:00,ths,5.63
2022-12-23T23:36:00,ths,4.52
2022-12-23T23:37:00,ths,4.53
2022-12-23T23:38:00,ths,4.59
2022-12-23T23:39:00,ths,4.62
2022-12-23T23:40:00,ths,4.56
2022-12-23T23:41:00,ths,4.55
2022-12-23T23:42:00,ths,4.65
2022-12-23T23:43:00,ths,4.42
2022-12-23T23:44:00,ths,3.77
2022-12-23T23:45:00,ths,3.79
2022-12-23T23:46:00,ths,3.81
2022-12-23T23:47:00,ths,3.68
2022-12-23T23:48:00,ths,4.97
2022-12-23T23:49:00,ths,6.11
2022-12-23T23:50:00,ths,6.08
2022-12-23T23:51:00,ths,5.97
2022-12-23T23:52:00,ths,5.98
2022-12-23T23:53:00,ths,5.98
2022-12-23T23:54:00,ths,5.98
